Wind_Speed
25 26 27 28 28 29 30 31 32 32 32 33 34 35 36 36 35 35 33 31 29 26 23 20 20 20 20 20 20 20 19 17 16 15 14 14 15 15 16 15 15 14 13 13 13 12 12 12 12 11 10 9 9 9 9 9 8 8 8 7 7 6 5 6 7 8 9 10 10 10 10 9 9 9 9 9 10 12 13 14 14 14 14 14 13 12
26 27 27 28 29 30 31 32 32 32 33 34 34 34 34 34 34 33 31 29 26 23 20 19 18 19 19 19 18 17 16 16 15 14 14 14 14 14 14 13 12 12 12 12 11 11 10 10 9 9 8 8 8 8 8 8 8 8 7 7 6 6 6 7 8 8 10 12 12 12 12 12 12 12 13 14 14 15 15 14 14 14 14 13 13 12
28 28 29 30 30 30 31 32 33 34 34 34 33 33 32 31 31 29 28 26 24 21 19 18 18 18 19 18 17 15 14 14 13 13 13 14 13 13 12 11 11 11 11 10 10 9 8 7 6 6 6 7 8 8 9 9 9 9 8 7 7 7 8 9 10 11 12 12 12 13 13 14 14 14 15 15 15 15 15 14 14 13 13 13 13 13
29 29 30 31 31 31 32 32 33 33 32 31 30 29 28 27 27 26 25 24 22 21 19 19 19 19 19 17 16 14 13 12 12 12 13 13 13 12 11 11 11 10 9 9 8 7 6 5 5 5 5 6 8 9 10 10 11 10 10 9 9 9 10 11 12 13 13 13 13 14 14 14 14 15 15 15 15 15 14 14 13 13 13 13 14 15
28 29 29 29 29 30 30 30 30 29 27 26 25 24 24 23 23 23 22 22 22 21 21 21 21 20 19 17 15 14 12 12 12 12 13 13 13 13 12 11 10 9 8 7 7 6 5 4 5 5 6 7 8 10 11 12 13 13 12 12 12 12 12 13 14 15 15 15 15 16 16 16 16 16 16 16 15 14 14 14 14 13 14 15 16 16
26 26 27 27 27 27 27 26 25 24 22 21 21 20 20 20 20 20 20 21 21 21 21 21 21 20 18 16 15 14 13 12 13 13 13 14 14 13 13 12 11 10 9 8 7 6 5 5 5 6 7 8 9 10 12 13 14 15 15 15 15 15 15 15 16 17 17 17 17 18 18 17 17 16 16 15 15 14 14 14 14 14 15 15 16 17
24 25 25 25 25 24 24 22 21 19 18 17 17 18 18 18 18 18 18 18 18 18 18 18 18 17 16 15 14 14 13 13 13 14 14 14 13 13 14 14 13 13 11 9 8 6 6 6 7 8 9 9 10 11 12 13 15 16 17 18 17 17 17 17 17 18 18 18 19 19 18 18 17 16 16 15 14 14 14 14 15 15 15 16 16 16
23 23 23 22 21 21 20 19 18 16 15 15 16 16 17 17 17 16 16 16 16 15 15 15 14 14 13 12 12 12 13 13 13 13 13 13 13 13 14 14 14 13 12 10 8 7 7 7 8 9 10 11 12 12 12 13 14 15 17 17 18 18 17 18 18 18 18 18 18 18 18 17 17 16 15 15 14 14 15 15 16 16 16 16 16 16
20 20 19 18 18 17 16 16 16 16 15 15 15 16 17 17 16 15 15 13 13 12 11 11 11 11 11 11 11 11 11 12 12 12 12 12 12 12 13 14 13 12 11 9 8 8 9 9 10 10 11 12 12 12 12 12 13 14 15 16 16 17 17 17 18 18 18 18 17 17 17 17 16 16 15 15 15 15 16 16 16 17 17 17 17 16
17 16 15 15 15 14 13 14 15 15 15 14 14 14 15 16 16 15 14 12 9 8 8 9 10 10 10 11 11 11 11 11 12 12 11 12 12 13 13 13 12 11 9 8 9 9 10 11 11 11 12 12 13 12 12 12 12 12 13 14 15 16 16 17 17 17 17 17 16 17 17 17 16 16 16 16 16 16 17 17 17 18 18 18 18 17
14 13 13 12 13 13 12 13 13 13 13 13 13 13 13 13 13 14 13 12 9 6 5 7 8 10 11 11 11 12 12 12 11 12 11 12 13 13 13 12 11 10 9 9 10 10 11 12 12 12 12 13 13 12 12 11 11 11 12 13 14 15 15 16 16 16 16 16 16 16 17 17 17 17 17 17 17 17 18 18 18 18 19 19 19 17
11 11 11 11 11 12 12 12 11 10 10 10 10 10 10 10 10 10 11 12 10 8 5 5 7 9 11 11 12 13 13 13 12 12 12 12 13 13 12 11 11 11 11 11 11 11 12 12 12 13 13 13 13 13 12 11 11 11 12 13 13 14 14 15 15 15 15 15 16 16 16 16 17 17 17 17 18 18 18 18 19 19 20 20 20 18
10 10 11 11 11 12 12 12 11 9 8 8 8 8 8 8 8 9 10 11 11 9 7 6 7 8 10 11 12 13 13 14 13 13 13 13 13 12 12 12 12 12 12 12 12 12 13 13 13 14 14 14 14 13 12 12 11 11 12 12 13 13 14 14 14 14 15 15 16 16 16 16 16 17 17 17 18 19 19 19 20 21 21 21 21 19
10 11 11 12 12 12 11 11 11 10 9 7 7 7 8 8 9 10 10 11 10 9 9 8 8 8 9 10 11 12 13 14 14 14 14 13 13 12 12 12 12 12 12 12 12 13 13 14 14 15 15 14 14 14 13 12 12 12 12 12 13 13 13 13 14 14 15 15 15 16 16 16 16 17 17 18 18 19 20 20 21 22 22 22 21 20
10 11 11 12 12 12 11 11 11 11 10 9 9 10 10 10 10 11 11 12 12 11 10 10 10 10 10 10 10 11 12 13 13 14 14 13 13 12 12 13 13 13 13 13 14 14 15 15 15 16 15 15 15 14 13 12 12 12 12 13 13 13 13 13 14 14 14 15 15 16 16 16 17 17 17 18 19 19 20 21 22 22 22 22 21 20
10 10 11 11 12 11 11 11 11 11 11 11 11 12 13 13 12 12 12 12 12 12 12 12 12 12 11 11 11 11 12 12 13 14 14 14 14 14 14 14 15 15 15 15 16 16 16 16 16 16 16 16 15 15 14 13 12 12 12 13 13 13 13 13 14 14 14 15 15 16 16 17 17 18 18 19 19 20 20 21 21 22 22 21 20 19
9 10 10 10 11 11 11 11 11 11 11 11 12 12 13 14 13 12 12 12 12 11 11 12 13 13 12 11 11 12 12 12 13 14 15 16 16 16 16 17 17 18 17 17 17 17 17 17 17 16 16 16 16 15 15 14 13 13 13 13 13 13 13 13 13 14 14 15 15 16 17 17 18 19 19 19 20 20 21 21 21 21 21 20 19 18
9 9 10 10 11 11 11 12 12 11 11 12 12 12 13 13 12 12 11 11 11 10 10 10 11 12 13 11 10 10 11 12 12 14 15 16 17 18 18 18 19 19 19 19 18 18 18 17 17 17 17 16 16 16 15 15 14 14 13 13 13 13 13 13 14 14 15 15 16 16 17 18 19 19 20 20 21 21 21 21 21 20 20 19 18 17
9 10 10 11 11 11 11 12 12 12 11 12 12 12 12 12 12 11 11 11 10 10 9 9 10 11 12 11 9 8 9 10 11 13 14 16 18 19 19 19 20 20 20 20 19 19 19 18 18 18 17 17 17 16 15 15 15 15 14 14 14 14 14 14 14 15 15 16 16 17 17 18 19 20 21 21 21 21 21 20 20 19 19 18 17 16
10 11 11 11 11 11 11 11 11 11 11 11 11 11 12 11 11 11 11 11 10 9 9 10 10 11 11 10 9 8 9 10 11 11 12 15 17 19 19 20 20 21 21 21 20 20 19 19 19 19 18 18 17 16 16 15 15 15 15 15 15 14 14 14 15 15 16 16 16 17 18 19 19 20 21 21 21 21 21 20 19 19 18 17 16 15
11 11 11 11 10 10 10 11 11 11 11 11 11 11 11 11 11 11 11 11 10 10 10 10 10 10 10 10 9 8 8 9 10 10 11 13 15 17 18 19 20 21 22 21 20 20 20 20 20 20 19 19 18 17 16 16 16 16 16 16 16 15 15 15 15 16 16 16 17 17 18 19 19 20 21 21 21 21 20 19 19 18 17 16 15 15
11 11 11 10 10 9 9 10 10 10 10 10 10 10 10 10 10 11 11 11 11 10 10 10 10 10 10 10 9 8 9 9 9 10 10 12 13 15 16 17 19 20 21 21 20 20 20 20 20 20 19 19 18 18 17 16 16 17 17 17 16 16 16 16 16 16 17 17 17 18 18 19 20 20 21 21 21 21 20 19 18 17 17 16 15 14
10 10 9 9 9 9 9 10 10 9 8 9 9 10 10 10 10 10 11 11 11 11 10 10 10 10 10 10 9 9 9 9 9 10 11 11 12 13 14 16 17 19 20 20 20 20 20 20 20 20 19 19 18 18 17 17 17 17 17 17 17 17 17 17 17 17 17 17 18 18 19 19 20 20 20 20 20 20 19 19 18 17 16 15 15 14
9 9 9 9 9 10 10 9 9 9 8 9 9 10 10 11 11 11 11 11 11 11 11 11 11 10 10 10 10 10 10 9 10 10 11 12 12 12 13 14 16 18 19 19 19 19 19 20 19 19 19 19 18 18 18 18 18 18 18 18 18 18 18 18 18 18 18 18 18 19 19 19 20 20 20 20 20 20 19 18 17 16 15 15 14 14
9 9 9 9 9 9 9 9 9 8 8 9 9 10 11 11 11 11 11 11 11 11 11 11 11 11 10 10 10 10 10 10 10 11 11 12 13 13 13 14 15 16 17 18 18 18 19 19 19 18 18 18 18 18 18 18 18 18 18 18 18 18 18 18 18 18 18 18 19 19 19 19 20 19 19 19 19 19 18 18 17 16 15 14 14 14
8 8 8 8 9 9 9 9 9 9 9 9 9 10 11 11 11 11 11 10 10 11 11 11 12 12 11 11 11 10 11 11 11 11 11 12 14 15 14 14 14 15 16 17 17 18 18 18 18 18 18 18 18 19 19 19 18 18 18 18 18 18 18 18 19 19 19 19 19 20 20 20 19 19 19 19 19 18 18 17 16 15 15 14 14 14
7 7 8 8 8 8 9 9 9 9 9 9 9 10 10 10 11 11 11 10 10 11 11 12 12 13 13 12 11 10 10 11 11 11 11 12 14 15 16 15 14 15 16 17 17 18 18 18 19 18 18 18 19 19 19 18 18 18 18 18 18 18 19 19 19 19 20 20 20 20 20 20 19 19 19 19 18 18 17 17 16 15 14 14 14 14
7 7 7 7 8 8 8 9 9 9 9 9 9 9 10 10 10 11 11 11 11 11 12 12 13 13 14 13 12 11 10 10 10 11 11 13 14 16 16 15 15 15 16 17 18 18 19 19 19 19 19 19 19 19 18 18 18 18 18 18 18 18 19 19 19 20 20 21 21 21 20 20 19 19 19 18 18 17 17 16 16 15 14 14 14 14
7 7 8 8 8 8 8 8 9 9 9 9 9 10 10 10 10 11 11 11 12 12 12 13 13 14 14 15 14 13 11 10 10 11 12 13 15 16 16 16 15 16 16 17 18 19 20 20 20 20 20 20 19 19 18 18 18 18 18 18 19 19 19 20 20 21 21 21 21 21 20 20 19 19 18 18 17 17 16 16 16 15 15 14 14 14
8 8 8 8 8 8 8 9 9 9 9 10 10 10 10 10 11 11 12 12 12 13 13 14 14 14 15 15 15 15 13 11 11 11 11 12 14 16 16 16 15 15 16 17 19 20 21 21 20 20 20 19 19 18 18 18 18 18 18 19 19 19 20 20 21 21 21 21 21 21 20 20 19 18 18 17 17 16 16 16 16 15 15 14 14 15
8 8 8 9 9 9 9 9 9 9 9 10 10 10 11 11 11 11 12 12 13 13 13 14 15 15 15 15 15 16 15 13 12 12 12 12 14 16 16 15 15 15 16 16 17 19 20 21 20 19 18 18 18 18 18 17 18 18 18 19 19 20 20 20 21 21 21 21 21 20 20 19 19 18 17 17 16 16 15 15 15 15 15 14 14 15
8 8 9 9 9 9 9 9 9 9 10 10 10 11 11 11 12 12 12 13 13 13 13 14 15 15 15 15 16 16 16 15 15 14 14 14 15 16 16 16 15 16 16 17 17 17 16 19 21 20 19 18 18 17 17 17 17 18 18 19 19 20 20 20 20 21 21 20 20 20 19 19 18 18 17 16 16 15 15 15 15 15 15 14 14 15
9 9 9 9 9 9 9 9 10 10 10 10 10 11 11 11 12 12 12 13 13 13 14 14 15 15 16 16 16 17 17 17 17 16 15 15 16 17 17 17 16 17 17 18 18 18 18 21 22 22 21 20 19 19 19 18 18 18 19 19 19 20 20 20 20 20 20 20 19 19 19 18 18 17 17 16 15 15 15 15 15 15 15 14 14 15
9 9 9 10 10 10 10 10 10 10 10 10 11 11 11 11 12 12 12 13 13 14 14 14 15 15 16 16 17 17 18 17 17 17 16 16 16 17 18 17 18 18 18 18 19 20 21 22 22 22 22 22 21 21 20 20 20 20 20 20 20 20 20 20 20 20 20 19 19 18 18 18 17 17 16 16 15 15 15 15 15 15 15 15 14 15
9 9 9 9 10 10 10 10 10 10 10 11 11 11 11 11 12 12 13 13 13 14 14 14 15 15 16 16 17 17 18 17 17 17 17 17 17 17 18 18 18 18 18 19 20 20 21 22 22 22 22 23 23 22 21 21 20 20 20 20 20 20 20 20 20 20 19 18 18 17 17 17 17 16 16 15 15 14 14 15 15 15 15 15 14 15
9 10 10 10 10 10 10 10 10 10 10 10 11 11 11 12 12 12 12 13 13 13 13 14 14 14 15 15 16 17 17 17 17 18 17 17 17 17 18 19 19 19 19 19 20 21 21 22 22 23 23 23 24 23 22 21 20 20 20 20 20 20 20 20 19 19 18 17 17 16 16 16 16 16 15 15 14 14 14 15 15 15 15 15 15 15
10 11 11 11 11 11 11 10 10 10 10 10 11 11 12 12 12 12 12 12 12 13 13 13 14 14 14 15 15 16 16 17 17 17 17 17 17 17 18 19 19 19 19 19 20 21 21 22 22 23 23 23 23 23 23 22 21 20 19 19 18 18 18 18 18 18 17 16 16 15 15 15 15 15 14 14 14 14 15 15 15 15 15 15 15 15
11 12 12 12 12 12 12 11 11 11 11 11 11 12 12 12 13 12 12 12 12 12 13 13 13 14 14 15 15 15 15 16 16 16 16 16 17 17 17 18 19 19 19 19 19 20 21 21 22 23 23 23 22 22 22 21 21 19 18 17 17 16 16 16 16 16 16 16 15 15 15 14 14 14 14 14 14 14 15 15 15 15 15 15 15 15
12 12 12 13 13 13 12 12 12 12 12 12 13 13 13 13 13 13 12 12 12 12 13 13 13 13 14 14 14 14 15 15 15 15 15 16 16 16 16 17 17 18 18 18 18 19 19 20 21 21 22 22 21 21 21 20 20 19 18 16 15 14 14 15 15 15 15 15 15 14 14 14 13 13 13 14 14 14 15 15 15 15 15 15 16 16
12 12 12 13 13 13 13 13 13 13 13 14 14 14 13 13 13 13 13 13 13 13 13 13 13 13 13 13 13 14 14 14 14 14 15 15 15 15 15 16 16 16 17 17 17 17 18 19 19 20 20 20 20 20 20 19 19 18 17 16 14 12 12 13 14 14 14 14 14 14 14 13 13 13 13 14 14 14 14 14 14 15 15 16 16 16
12 12 12 13 13 13 13 13 14 14 14 14 14 14 14 14 13 13 13 13 13 13 13 13 13 13 13 13 13 13 13 13 13 14 14 14 14 14 14 15 15 15 15 15 16 16 16 17 17 18 18 18 18 18 18 18 18 18 17 16 14 13 12 12 13 13 14 14 14 14 14 14 13 13 13 13 14 14 14 14 15 15 15 16 16 16
13 13 13 14 14 14 14 14 15 15 15 15 15 15 15 14 14 14 14 13 13 13 12 12 12 12 12 11 11 11 11 12 12 13 13 13 13 14 14 14 14 14 14 14 14 15 15 15 16 16 17 17 17 17 17 17 17 17 17 16 15 13 12 12 12 12 13 14 14 14 14 14 14 14 13 13 14 14 14 15 15 15 16 16 16 16
14 14 15 15 15 15 15 15 15 15 16 15 15 15 15 15 15 15 14 14 14 13 12 12 11 11 10 10 9 9 10 10 10 11 12 12 12 13 13 13 13 13 13 14 14 14 14 14 15 15 15 15 16 16 17 16 16 16 16 15 15 14 14 12 10 11 12 13 14 14 14 14 14 14 14 14 14 14 14 15 15 16 16 16 16 16
15 16 16 16 16 16 16 16 16 16 16 16 15 15 15 15 15 15 15 15 14 14 13 12 11 10 10 8 8 8 8 8 8 8 9 10 11 12 12 12 12 13 13 13 13 13 14 14 14 14 14 15 15 16 16 15 15 14 14 14 14 14 14 13 11 11 11 12 13 13 14 14 14 14 15 15 15 15 15 15 16 16 16 16 16 16
16 17 18 17 17 17 17 17 17 17 16 16 15 15 15 15 15 15 15 14 14 14 13 12 12 11 10 8 8 8 8 8 7 7 7 8 9 10 11 11 12 12 12 12 13 13 13 13 13 13 14 14 15 15 15 14 14 13 13 13 13 13 13 12 12 11 11 11 12 12 13 14 14 15 15 16 16 15 15 15 16 16 16 16 16 16
17 18 18 18 18 18 17 17 17 17 16 15 14 14 14 14 14 14 14 13 13 13 13 12 12 12 11 10 9 9 9 9 9 8 7 7 8 9 10 10 11 11 12 12 12 13 13 13 13 14 14 14 15 15 14 13 13 12 12 12 12 13 13 12 12 11 11 11 11 12 13 14 15 16 16 16 16 16 16 16 16 16 16 16 16 16
18 19 19 19 19 18 18 17 17 16 15 14 13 13 13 13 13 13 12 12 12 12 12 12 12 12 12 11 10 10 10 10 10 9 8 8 8 8 9 10 10 11 12 12 12 13 13 13 13 14 14 15 15 14 13 12 12 12 11 11 12 13 13 12 12 11 11 11 11 11 12 14 15 16 16 16 16 16 16 16 16 16 16 16 17 17
19 19 19 19 19 19 18 17 17 16 15 14 13 13 12 12 12 12 12 12 12 12 12 13 13 13 12 11 11 10 10 10 10 10 9 8 8 8 8 9 10 11 12 12 13 13 13 13 13 14 14 15 15 14 13 11 11 11 11 11 12 12 13 12 11 11 11 11 11 11 12 14 15 15 16 17 17 18 17 17 17 17 17 17 17 18
20 20 19 19 19 18 18 17 16 16 15 14 14 13 12 12 12 12 12 12 12 12 12 13 13 13 13 12 11 11 11 11 11 10 10 10 9 8 9 9 10 11 12 12 13 14 14 14 14 13 13 14 14 14 13 11 11 11 11 12 12 12 12 12 11 11 12 12 12 12 12 13 14 15 16 17 18 19 18 18 18 18 17 18 18 18
19 19 19 18 17 17 16 16 15 15 15 15 14 14 13 13 13 12 12 12 12 12 12 12 13 13 13 12 12 11 11 11 11 11 11 11 10 10 9 9 9 10 11 12 13 14 14 15 14 13 13 13 13 13 13 12 11 11 12 12 12 12 12 11 11 11 12 12 12 12 12 13 14 15 16 17 19 19 19 19 19 18 18 18 18 19
18 18 17 17 16 15 15 15 15 15 15 15 14 14 14 14 13 13 12 12 11 11 11 11 12 12 12 12 11 11 11 11 11 11 11 11 11 11 11 10 10 11 11 12 13 14 14 15 15 13 12 11 11 12 12 12 11 11 11 11 11 11 11 11 11 11 11 12 12 12 13 13 13 14 15 17 18 19 20 20 19 18 18 18 18 19
Wind_Direction
266 267 268 268 267 266 268 271 271 271 272 275 277 279 282 284 285 286 287 287 286 285 283 282 281 282 282 283 284 285 286 286 285 283 283 282 280 277 275 273 272 272 272 272 270 269 269 270 270 270 269 266 264 263 261 259 256 250 241 232 224 219 223 231 238 237 230 219 207 199 199 202 206 213 224 238 251 261 269 274 278 281 283 283 282 281
265 266 267 267 266 265 266 271 272 271 272 274 276 279 281 283 284 284 285 284 284 282 280 278 279 281 283 284 285 285 284 282 281 281 280 279 277 274 271 269 268 267 266 264 261 260 262 266 269 272 275 278 278 276 273 269 264 256 247 237 230 227 230 238 242 244 244 242 241 241 246 252 257 260 263 267 270 272 274 277 279 281 283 282 279 275
266 266 267 268 267 267 267 270 272 274 275 277 279 281 282 282 283 283 283 283 282 280 276 274 275 278 281 282 281 279 278 279 281 282 280 277 273 269 267 266 264 262 260 256 254 254 258 265 273 278 282 283 282 279 276 273 269 263 257 250 245 242 242 245 250 255 258 259 260 262 265 268 270 273 274 275 276 277 277 278 278 278 278 275 270 266
267 267 268 270 270 270 270 271 274 277 279 281 283 283 283 284 284 283 283 282 279 275 271 269 271 275 277 277 274 270 270 271 273 274 273 271 269 268 268 266 264 260 257 252 250 250 258 269 279 282 278 273 269 266 264 263 261 260 257 254 251 249 248 250 254 259 263 266 268 270 272 274 274 275 276 277 278 277 277 276 275 272 268 262 258 256
268 268 270 271 272 272 273 275 278 280 283 284 284 284 285 285 286 285 284 281 277 272 267 266 268 271 272 269 264 261 261 262 263 262 262 262 265 268 271 271 270 269 266 261 256 256 263 275 283 284 279 271 264 259 256 254 253 252 251 249 248 248 248 251 254 257 261 264 266 268 271 273 274 274 275 276 276 274 272 271 269 266 261 257 255 255
271 272 273 274 275 276 279 281 283 284 285 285 286 287 287 287 287 285 283 280 276 272 267 265 265 267 266 262 257 254 254 257 259 259 257 258 262 267 273 277 282 285 284 279 272 269 273 281 287 289 288 283 276 269 262 257 253 250 247 246 245 246 248 251 254 256 258 259 262 264 267 270 271 272 272 272 271 269 267 266 264 263 261 260 259 260
279 279 281 282 283 285 286 287 288 287 286 285 286 287 288 288 288 287 285 282 279 274 269 265 263 261 259 256 253 251 252 255 257 258 256 256 260 267 274 281 287 291 290 286 280 278 282 287 290 292 293 293 289 283 275 267 260 254 250 247 246 246 248 251 254 256 257 258 260 262 265 267 268 268 268 267 266 265 263 263 262 263 263 263 264 265
283 285 286 287 288 290 291 291 290 288 286 285 285 285 285 285 286 287 288 287 284 278 271 264 259 255 251 250 249 250 250 251 251 252 252 253 258 267 276 283 287 289 287 284 282 283 288 290 291 292 295 296 294 290 283 276 267 260 254 250 248 247 248 250 252 254 256 258 261 263 265 266 266 266 265 264 264 263 263 264 264 265 266 267 268 269
283 284 286 287 289 292 295 296 295 294 294 292 290 289 289 289 289 289 290 290 288 283 275 264 255 249 246 245 247 247 246 245 245 247 250 254 260 268 276 282 285 286 283 281 282 286 289 290 290 292 295 297 296 292 286 279 270 262 256 251 248 247 247 248 249 251 254 257 260 263 264 265 265 265 264 264 263 264 265 266 267 268 270 272 272 272
280 280 283 286 290 293 299 301 301 301 302 301 298 296 295 296 296 297 297 296 293 285 275 261 250 244 244 244 246 249 249 248 248 251 255 261 266 271 275 280 282 282 278 278 281 285 286 287 288 291 295 297 297 294 288 279 269 259 252 248 246 246 246 247 248 250 252 254 256 258 259 261 262 262 263 263 264 265 266 268 270 272 274 276 276 276
278 280 285 291 294 295 296 298 300 301 302 301 299 298 297 297 299 301 303 304 302 294 276 259 247 241 243 245 248 251 254 255 256 258 260 265 268 271 274 277 278 276 274 276 280 282 283 284 286 289 293 296 297 295 290 280 268 256 248 245 244 245 247 249 251 252 253 254 254 254 254 255 257 259 260 262 264 266 268 270 272 274 276 277 278 277
288 294 300 305 305 302 299 296 294 293 295 296 297 295 294 295 300 303 304 307 309 308 296 272 255 247 244 246 249 253 256 258 259 262 263 265 266 268 270 272 272 272 272 275 277 279 280 281 283 286 291 294 297 296 291 282 270 258 250 246 245 247 250 252 254 255 255 255 253 253 253 253 255 257 259 262 264 267 269 270 270 271 273 275 276 275
297 302 305 305 304 303 302 301 299 296 297 301 304 304 303 304 305 304 301 303 307 308 302 287 270 259 252 248 249 253 256 259 260 261 261 261 261 260 261 264 266 268 270 273 275 276 277 278 280 283 287 291 295 295 292 284 273 262 254 250 249 250 253 255 257 258 258 257 255 254 254 255 257 259 260 263 266 268 269 269 268 268 269 271 272 272
290 294 295 295 297 300 303 306 306 307 310 315 316 313 311 308 305 301 297 298 300 300 296 287 275 266 262 256 252 252 256 259 260 260 259 258 257 256 256 258 261 264 267 269 271 272 272 274 276 279 284 288 292 293 290 284 275 266 259 254 252 251 253 255 257 259 259 258 258 258 258 260 261 263 264 266 268 270 271 271 270 269 268 268 269 268
284 289 292 296 300 304 308 309 309 309 312 317 319 317 312 306 302 299 297 298 297 295 291 285 277 267 261 259 255 252 254 256 258 259 258 259 258 258 257 259 260 262 264 266 267 268 268 270 273 276 281 286 290 291 288 283 275 268 262 257 254 252 252 253 255 257 258 259 260 261 263 264 266 268 269 270 271 272 272 272 271 270 269 268 267 265
283 288 293 299 303 306 306 306 305 304 307 311 313 310 306 303 300 297 296 297 298 297 294 290 282 272 264 260 255 251 250 251 254 256 257 259 259 259 259 259 261 263 263 264 264 265 266 268 270 275 280 286 289 289 287 283 276 270 264 260 256 254 253 254 255 256 258 260 262 264 266 268 270 271 272 273 273 273 273 272 271 270 268 267 264 261
283 287 291 295 298 299 299 297 296 298 301 303 302 301 301 301 301 300 300 301 301 300 297 294 288 281 272 265 258 254 251 250 251 253 255 256 257 258 260 259 260 262 263 262 262 263 265 267 270 275 281 286 289 290 289 284 279 274 268 263 259 257 255 255 255 257 259 261 264 266 269 271 273 274 275 275 275 275 273 272 271 269 267 265 261 257
280 283 285 287 289 291 290 290 292 294 295 295 294 295 296 300 303 305 306 306 304 302 298 293 289 286 280 273 266 260 255 251 251 251 252 252 253 255 259 259 259 260 262 262 262 264 266 269 272 277 281 286 290 291 290 287 282 278 273 268 263 259 257 256 256 258 260 263 265 268 271 274 276 277 278 278 277 276 275 273 271 269 266 263 259 253
278 279 281 283 286 287 287 288 290 291 290 290 291 294 298 302 305 305 304 304 303 302 298 295 293 292 290 286 280 269 259 253 250 249 249 247 247 249 254 256 257 259 261 263 265 267 269 271 274 278 282 286 289 290 289 286 283 279 275 271 267 263 260 258 258 259 261 264 266 270 273 275 277 279 279 279 279 277 276 273 271 268 265 261 257 251
275 275 275 278 280 282 286 289 290 291 290 291 292 295 298 300 300 300 299 299 298 297 295 294 295 297 298 298 292 279 263 253 248 247 248 245 244 245 249 252 255 259 262 264 266 269 271 273 275 278 282 285 287 288 287 284 281 278 275 273 269 266 263 261 260 260 262 264 267 271 274 276 278 279 280 280 279 277 275 273 270 267 264 260 255 249
274 273 274 276 277 280 286 290 292 293 294 295 296 296 297 297 297 296 295 293 290 288 285 287 290 293 296 297 293 280 264 255 249 246 246 245 243 242 245 249 253 257 260 263 265 268 270 272 275 278 281 283 285 285 284 283 280 278 275 273 271 269 267 265 263 263 264 265 268 272 275 277 279 280 280 279 278 276 274 271 269 266 263 259 254 248
274 275 277 278 280 284 288 291 293 294 296 298 299 298 298 297 295 294 292 289 286 283 281 282 285 287 289 289 287 279 268 261 255 250 247 246 243 241 242 246 250 254 258 261 264 266 268 271 274 276 279 281 282 282 281 280 279 277 275 274 272 271 269 268 266 265 266 267 270 273 276 278 279 279 279 278 276 274 272 270 267 264 261 258 254 248
277 280 283 287 289 291 291 290 290 291 295 297 297 297 298 298 296 293 290 287 284 283 281 281 281 282 283 284 283 279 274 267 262 257 254 251 248 244 243 244 247 252 256 260 263 265 267 269 272 275 277 279 279 279 278 277 276 275 274 273 273 272 271 269 268 267 268 269 271 274 276 278 279 279 278 276 274 272 270 268 265 262 260 257 253 248
283 286 289 291 292 292 290 288 288 291 295 297 298 298 297 296 294 291 289 287 286 286 285 284 284 284 283 282 279 275 271 267 263 260 259 258 256 252 248 246 247 251 255 259 262 265 267 269 271 273 275 276 276 276 276 275 274 273 272 272 271 271 270 270 269 269 269 270 272 275 277 278 279 278 276 274 272 270 269 267 264 262 259 256 252 248
287 290 291 292 293 293 293 293 294 295 297 297 296 295 294 292 290 289 289 289 289 289 289 288 287 286 284 281 278 274 271 268 264 262 261 262 262 261 257 254 253 254 257 260 263 265 267 269 270 272 273 274 275 275 274 273 272 271 271 270 270 270 269 269 269 269 270 272 274 276 277 278 278 277 275 272 270 268 267 266 264 261 259 255 252 247
288 291 293 294 296 298 299 299 299 298 296 294 291 289 288 288 288 289 289 290 290 291 290 289 287 285 283 281 279 276 274 272 270 266 265 266 267 266 265 262 261 261 262 264 265 267 268 269 270 271 272 273 273 273 273 272 271 270 269 268 268 268 268 268 268 269 271 273 275 276 278 278 277 275 273 270 268 267 266 265 264 262 258 255 251 246
287 288 290 293 296 298 299 300 299 297 295 291 288 287 286 287 287 288 289 290 290 289 288 286 285 285 283 281 279 277 277 277 275 272 270 270 269 269 269 268 267 267 267 268 269 269 269 270 270 271 271 272 272 272 272 272 271 269 268 267 266 266 266 267 268 270 272 274 275 277 278 277 276 274 271 268 266 265 265 264 263 261 258 254 250 245
284 286 287 290 292 294 296 296 296 296 294 293 291 290 290 289 289 289 290 290 289 287 285 284 284 285 285 284 282 281 281 281 279 276 274 272 270 270 272 272 271 270 270 271 271 270 269 269 270 270 270 270 270 271 271 270 270 268 267 266 265 265 266 267 269 271 273 274 276 277 277 276 275 272 269 267 265 264 264 264 263 261 257 253 249 244
285 287 287 288 290 290 292 293 293 294 295 295 294 294 293 292 290 290 290 288 288 287 286 285 285 286 287 288 287 286 286 283 280 277 276 275 273 273 275 275 274 273 273 273 273 271 270 269 269 270 270 270 269 269 269 268 268 267 266 266 265 266 267 268 270 272 273 275 275 276 276 275 273 270 268 265 264 263 263 263 263 260 256 252 247 243
286 287 288 288 289 290 290 291 291 292 294 294 294 294 294 293 291 290 289 288 288 289 288 288 287 287 288 289 290 290 289 285 281 279 279 278 277 277 279 280 279 278 276 276 277 276 275 273 271 270 270 270 270 269 268 267 266 266 266 266 266 267 268 270 271 273 274 274 274 274 273 272 270 268 266 264 262 262 262 263 262 260 256 250 246 242
282 284 285 286 287 288 289 289 290 291 292 292 292 293 293 293 291 290 289 288 288 289 289 288 288 287 287 289 291 292 290 286 282 281 281 280 280 280 283 284 283 282 279 278 277 278 279 279 277 274 272 272 271 270 268 267 266 266 266 267 268 269 270 271 272 273 273 273 273 272 271 269 268 265 263 262 261 260 261 261 261 260 256 250 245 241
282 283 284 285 286 287 288 289 290 290 291 291 291 291 291 291 291 290 289 288 287 287 287 287 287 286 286 287 288 288 287 285 283 283 283 282 281 282 283 284 283 282 280 277 275 275 276 279 280 279 278 275 273 272 270 268 267 267 267 268 269 271 272 272 272 273 272 272 271 269 268 266 264 262 261 259 259 258 259 260 260 259 256 250 244 240
286 288 288 289 289 290 292 292 293 293 293 292 292 292 292 292 291 291 290 289 288 286 286 286 286 286 286 285 285 284 284 284 284 285 284 283 282 282 283 282 281 280 280 278 277 275 274 276 279 281 281 279 276 274 272 271 270 270 270 270 271 271 272 272 272 272 271 270 269 267 265 263 261 259 258 257 256 257 257 257 258 258 255 251 245 240
287 289 291 292 293 294 295 296 297 297 297 297 296 295 295 295 294 294 293 293 291 289 287 286 285 286 286 286 285 285 285 285 285 285 286 284 283 282 283 282 281 280 280 279 279 278 277 278 280 281 281 280 278 276 275 274 273 273 272 272 272 272 272 271 270 270 270 269 267 265 262 259 257 256 255 254 254 254 254 255 256 256 254 250 244 239
285 287 289 291 293 294 296 297 299 300 301 301 301 300 299 299 299 299 298 297 296 295 292 289 287 286 285 285 285 286 286 286 286 286 286 284 283 283 283 282 281 281 280 279 279 278 278 279 280 280 281 280 279 278 276 276 275 275 275 274 274 273 271 270 269 268 268 266 265 262 259 256 254 253 252 252 252 252 252 253 253 254 253 250 245 240
286 287 288 289 290 292 294 296 298 302 304 304 303 303 303 303 303 303 302 301 300 298 296 293 291 288 286 285 285 285 285 285 285 286 286 285 284 284 283 282 282 281 280 279 278 278 278 278 278 278 278 279 279 279 279 278 277 276 275 275 273 272 270 269 268 267 265 264 262 260 257 254 252 251 250 250 250 250 250 250 250 251 251 250 246 241
288 290 290 290 291 292 294 296 298 302 305 305 305 305 305 305 305 304 304 303 301 299 298 296 293 291 290 288 286 285 285 285 286 286 286 286 285 284 283 283 282 282 280 279 279 278 278 278 278 277 277 277 278 280 281 281 279 277 276 274 273 271 269 268 266 265 264 262 260 258 255 252 250 249 248 248 248 248 247 247 246 247 247 248 246 243
288 290 291 292 293 294 296 299 302 304 305 305 305 305 306 305 306 305 305 304 303 301 299 298 296 295 293 292 290 289 288 288 288 287 287 286 285 284 283 283 283 282 281 280 279 279 279 278 278 278 278 279 279 280 282 282 281 279 276 274 272 270 268 267 265 264 262 261 259 257 254 252 249 248 246 246 246 245 245 245 245 244 244 244 244 243
286 289 292 293 294 295 298 301 304 305 305 304 304 304 304 304 304 305 305 305 304 303 301 300 299 297 296 295 294 293 292 292 291 290 289 288 286 285 284 283 283 283 282 281 280 279 278 278 279 279 280 281 282 282 282 282 282 281 278 275 272 270 269 266 265 262 261 259 258 257 255 253 250 248 246 245 244 244 245 245 244 243 242 241 242 243
283 287 290 291 291 293 297 301 303 304 304 304 304 303 303 303 303 304 304 304 305 304 303 302 301 299 298 297 297 296 296 294 293 292 291 289 288 286 285 284 283 283 283 282 281 280 279 279 279 279 280 282 283 283 283 283 283 282 281 278 274 271 267 265 263 261 260 258 257 257 256 255 253 250 247 245 244 244 245 245 245 244 242 240 240 240
282 285 287 286 288 292 297 301 302 303 304 305 305 304 304 303 303 303 303 303 304 304 304 304 303 301 301 300 300 299 299 297 296 294 293 291 290 289 287 286 284 284 283 283 282 281 280 279 279 280 280 281 282 282 282 282 282 282 282 280 277 271 265 262 261 261 260 259 258 257 256 256 254 252 250 248 246 245 244 243 243 242 241 240 240 241
282 285 286 287 290 294 298 300 302 303 304 305 305 305 304 303 303 302 302 302 302 302 301 301 301 301 301 302 301 301 300 299 298 296 295 294 292 291 289 288 286 285 285 284 283 281 280 280 279 280 281 281 281 281 280 279 279 280 281 281 279 275 268 263 261 261 260 259 258 257 256 256 255 255 253 251 248 246 244 242 241 240 240 239 238 239
285 286 287 289 292 296 299 301 303 304 305 305 304 304 303 302 302 301 301 301 301 301 300 299 298 298 298 300 301 300 299 298 298 297 297 295 294 293 292 290 289 287 286 285 284 282 281 280 280 280 280 280 279 279 279 278 277 277 280 282 282 280 277 271 264 259 258 257 257 257 256 256 256 256 255 253 251 248 245 242 240 240 239 239 239 238
287 287 288 291 294 297 300 302 303 304 303 303 303 303 302 301 301 300 301 301 302 302 301 300 297 295 296 300 303 303 300 299 298 298 297 296 296 295 294 292 290 289 288 286 285 284 283 281 280 280 279 278 277 277 278 279 279 278 279 282 282 281 279 276 270 262 257 255 255 256 256 256 256 255 254 253 251 250 247 245 243 242 241 241 241 240
286 287 289 292 295 298 299 300 300 300 300 300 301 301 301 300 299 300 301 301 302 301 302 301 300 298 298 304 307 307 305 304 302 300 298 297 296 295 294 292 291 290 289 288 286 285 285 283 282 280 278 277 277 277 279 281 282 282 281 282 282 281 279 277 273 267 260 256 254 254 255 255 255 254 254 253 252 251 250 249 247 246 245 244 243 242
284 285 288 291 293 294 295 296 296 297 297 298 300 300 299 298 298 299 300 300 300 300 300 300 299 299 300 304 306 306 306 306 306 305 303 300 298 296 294 292 291 290 289 288 288 287 286 285 284 283 281 279 278 279 281 283 285 285 283 282 281 281 280 278 275 272 267 261 257 254 253 254 254 254 254 254 254 253 252 251 250 249 248 248 247 246
281 283 285 288 290 292 293 294 295 297 298 300 300 300 299 298 298 299 299 300 299 298 298 298 298 298 299 302 304 305 304 305 305 304 303 302 299 296 293 291 290 289 288 287 287 287 287 286 286 285 284 283 283 283 285 286 287 287 286 283 280 278 278 277 277 276 271 266 261 256 253 253 254 255 256 256 255 254 252 251 250 249 249 249 249 249
279 280 282 285 288 290 292 294 296 298 300 301 301 301 300 299 299 300 301 300 299 298 297 297 297 297 298 300 302 302 302 301 301 300 299 298 296 293 291 289 288 288 287 287 287 287 286 286 286 286 286 287 288 289 291 290 290 289 287 283 279 276 276 277 277 275 272 268 263 258 255 253 254 255 257 257 256 255 252 250 249 248 248 248 249 250
275 276 278 281 284 287 290 293 295 297 299 300 301 301 301 301 301 301 301 301 299 298 297 296 296 296 297 299 301 301 300 299 298 297 297 295 293 290 288 286 285 285 285 286 287 287 287 286 286 287 289 290 291 293 295 295 292 289 285 281 278 277 276 276 274 272 270 268 264 260 257 255 255 255 256 256 256 255 253 251 249 247 246 247 248 249
272 274 276 279 281 284 287 290 293 296 297 298 299 300 301 302 301 301 300 299 298 297 296 295 295 295 297 299 300 301 300 299 298 297 297 296 293 290 287 285 283 283 284 285 285 285 286 286 286 288 290 292 294 294 295 295 292 288 283 282 281 279 278 276 273 270 268 267 265 262 259 256 254 254 254 255 256 255 254 253 251 249 248 247 247 248
271 274 277 280 282 284 286 289 291 293 294 296 297 298 300 301 301 300 299 298 297 296 295 294 294 295 297 298 299 299 298 298 298 298 298 297 295 292 290 288 287 287 287 287 286 285 284 285 285 286 288 291 293 293 291 291 289 286 284 283 283 282 279 278 274 271 268 267 265 263 260 258 255 254 254 255 256 257 257 255 254 253 251 250 250 250
Height
1523 1522 1522 1522 1521 1521 1520 1520 1520 1520 1519 1518 1517 1517 1516 1516 1516 1515 1515 1514 1514 1514 1514 1514 1514 1513 1513 1512 1512 1512 1512 1512 1512 1512 1513 1513 1513 1513 1514 1514 1514 1514 1513 1514 1514 1514 1514 1514 1514 1514 1514 1514 1514 1514 1515 1515 1515 1516 1516 1517 1517 1517 1518 1519 1519 1519 1519 1519 1520 1520 1520 1520 1520 1521 1521 1521 1521 1522 1522 1522 1522 1522 1523 1523 1523 1523
1520 1520 1520 1519 1519 1519 1519 1518 1518 1517 1517 1517 1516 1516 1515 1514 1514 1514 1513 1513 1512 1512 1512 1512 1512 1511 1511 1511 1511 1511 1511 1511 1511 1511 1511 1511 1512 1512 1512 1512 1512 1512 1512 1513 1513 1513 1513 1513 1513 1513 1513 1513 1513 1514 1514 1514 1515 1515 1516 1516 1516 1517 1518 1518 1519 1519 1519 1519 1519 1520 1520 1520 1520 1520 1520 1520 1520 1521 1521 1521 1521 1521 1521 1522 1522 1522
1518 1518 1518 1517 1517 1517 1516 1516 1515 1515 1515 1515 1515 1514 1514 1513 1512 1511 1511 1511 1510 1510 1511 1511 1510 1510 1509 1509 1509 1509 1509 1510 1509 1509 1510 1510 1510 1510 1510 1511 1511 1511 1511 1512 1512 1512 1512 1512 1512 1512 1512 1513 1513 1513 1514 1514 1514 1514 1515 1515 1516 1516 1517 1517 1518 1518 1518 1519 1519 1519 1519 1519 1519 1519 1519 1519 1519 1519 1520 1520 1520 1520 1520 1521 1521 1521
1516 1515 1515 1515 1515 1515 1514 1514 1514 1513 1514 1513 1513 1512 1511 1510 1509 1509 1509 1509 1509 1509 1509 1509 1509 1509 1508 1508 1508 1509 1509 1509 1509 1509 1509 1509 1509 1509 1509 1509 1510 1510 1510 1511 1511 1511 1511 1511 1511 1511 1512 1512 1513 1513 1513 1513 1514 1514 1514 1515 1515 1516 1516 1517 1517 1518 1518 1518 1518 1518 1518 1518 1518 1518 1518 1518 1518 1519 1519 1519 1519 1519 1520 1520 1520 1520
1514 1513 1513 1513 1513 1513 1512 1512 1512 1512 1512 1511 1510 1509 1509 1508 1508 1507 1506 1506 1506 1506 1507 1507 1507 1507 1507 1507 1507 1507 1508 1508 1508 1508 1508 1508 1508 1508 1508 1509 1509 1509 1509 1509 1510 1510 1510 1510 1511 1511 1511 1512 1512 1512 1512 1513 1513 1513 1514 1514 1514 1515 1515 1516 1516 1517 1517 1517 1517 1517 1517 1517 1517 1518 1518 1518 1518 1518 1518 1518 1519 1519 1519 1519 1519 1519
1511 1511 1511 1511 1511 1510 1510 1510 1510 1510 1509 1509 1508 1508 1507 1506 1506 1505 1504 1504 1504 1504 1504 1505 1505 1505 1505 1505 1505 1506 1506 1506 1507 1507 1507 1507 1507 1507 1507 1508 1508 1508 1508 1509 1509 1509 1509 1509 1510 1510 1511 1511 1511 1511 1511 1512 1512 1512 1513 1513 1513 1514 1514 1515 1515 1515 1516 1516 1516 1516 1516 1517 1517 1517 1517 1517 1517 1517 1517 1517 1518 1518 1518 1518 1518 1518
1509 1509 1509 1508 1508 1508 1508 1508 1508 1508 1508 1507 1507 1506 1505 1504 1504 1504 1503 1503 1503 1503 1503 1503 1503 1504 1504 1504 1504 1504 1505 1505 1505 1506 1506 1506 1506 1506 1506 1506 1507 1507 1507 1507 1508 1508 1509 1509 1509 1509 1510 1510 1510 1510 1510 1510 1511 1511 1511 1512 1512 1513 1513 1514 1514 1514 1514 1515 1515 1515 1515 1515 1516 1516 1516 1516 1516 1516 1516 1516 1516 1516 1516 1516 1516 1516
1507 1506 1507 1506 1506 1506 1506 1506 1506 1506 1506 1506 1505 1504 1504 1503 1503 1502 1502 1501 1501 1501 1501 1501 1502 1502 1502 1502 1503 1503 1504 1504 1504 1504 1505 1505 1505 1505 1505 1505 1506 1506 1506 1506 1507 1507 1508 1508 1508 1509 1509 1509 1509 1509 1509 1509 1509 1509 1510 1510 1511 1511 1512 1513 1513 1513 1514 1514 1514 1514 1514 1514 1514 1514 1514 1515 1515 1515 1515 1515 1515 1515 1515 1515 1515 1515
1505 1505 1505 1505 1505 1504 1504 1504 1504 1504 1504 1504 1504 1503 1502 1501 1501 1501 1501 1500 1500 1500 1500 1500 1500 1501 1501 1501 1502 1502 1502 1503 1503 1503 1504 1504 1504 1504 1504 1505 1505 1505 1505 1505 1506 1506 1507 1507 1508 1508 1508 1508 1508 1508 1508 1508 1508 1508 1509 1509 1509 1510 1511 1511 1512 1512 1512 1513 1513 1513 1513 1513 1513 1513 1514 1514 1514 1514 1514 1514 1514 1514 1514 1514 1514 1514
1504 1504 1504 1504 1503 1503 1503 1503 1503 1503 1502 1502 1502 1501 1501 1500 1499 1499 1499 1499 1499 1499 1499 1499 1499 1499 1500 1500 1500 1501 1501 1501 1502 1502 1503 1503 1503 1503 1504 1504 1504 1504 1504 1504 1505 1505 1506 1506 1507 1507 1507 1507 1507 1507 1507 1507 1507 1507 1508 1508 1509 1509 1509 1510 1510 1511 1511 1511 1512 1512 1512 1512 1512 1512 1512 1512 1512 1512 1512 1512 1512 1512 1512 1513 1513 1513
1503 1503 1503 1502 1502 1502 1502 1502 1502 1502 1502 1501 1501 1500 1500 1499 1499 1499 1498 1498 1498 1499 1499 1498 1498 1499 1499 1499 1499 1499 1500 1500 1501 1501 1502 1502 1502 1502 1503 1503 1503 1503 1504 1504 1504 1504 1505 1505 1506 1506 1506 1506 1506 1506 1506 1506 1506 1506 1507 1507 1508 1508 1509 1509 1509 1509 1510 1510 1510 1511 1511 1511 1511 1511 1511 1511 1511 1511 1511 1511 1511 1511 1511 1511 1511 1512
1502 1501 1501 1501 1501 1501 1501 1501 1501 1501 1501 1501 1500 1500 1499 1499 1499 1498 1498 1497 1497 1498 1498 1498 1498 1498 1498 1498 1498 1499 1499 1499 1499 1500 1500 1501 1501 1501 1502 1502 1502 1502 1503 1503 1504 1504 1504 1504 1505 1505 1505 1505 1505 1505 1505 1505 1506 1506 1506 1506 1507 1507 1507 1508 1508 1508 1509 1509 1509 1509 1510 1510 1510 1510 1510 1510 1510 1510 1510 1510 1510 1510 1510 1510 1510 1510
1501 1500 1500 1500 1500 1500 1500 1500 1500 1500 1500 1500 1499 1499 1499 1498 1498 1498 1497 1497 1497 1497 1497 1497 1497 1497 1497 1497 1497 1498 1498 1498 1499 1499 1499 1500 1500 1500 1501 1501 1501 1501 1502 1502 1503 1503 1504 1504 1504 1504 1504 1504 1505 1505 1505 1505 1505 1505 1505 1505 1506 1506 1506 1506 1507 1507 1507 1508 1508 1508 1509 1509 1509 1509 1509 1509 1509 1509 1509 1509 1509 1509 1509 1509 1509 1509
1500 1500 1500 1500 1500 1500 1500 1499 1499 1499 1499 1499 1498 1498 1498 1498 1497 1497 1497 1496 1496 1496 1496 1496 1496 1496 1496 1496 1497 1497 1497 1497 1498 1498 1498 1499 1499 1499 1499 1500 1500 1500 1501 1501 1502 1502 1503 1503 1503 1503 1503 1504 1504 1504 1504 1504 1504 1504 1504 1504 1504 1505 1505 1505 1505 1506 1506 1506 1507 1507 1507 1508 1508 1508 1508 1508 1508 1508 1508 1508 1508 1507 1507 1507 1508 1508
1499 1499 1499 1499 1499 1499 1499 1499 1498 1498 1498 1498 1498 1497 1497 1497 1497 1496 1496 1495 1495 1495 1495 1495 1495 1495 1495 1495 1496 1496 1496 1497 1497 1497 1497 1497 1498 1498 1499 1499 1499 1499 1500 1500 1501 1501 1501 1502 1502 1502 1502 1502 1503 1503 1503 1503 1503 1503 1503 1503 1504 1504 1504 1504 1504 1504 1505 1505 1505 1506 1506 1506 1506 1507 1507 1507 1507 1506 1506 1506 1506 1506 1506 1506 1506 1507
1498 1498 1498 1498 1498 1498 1498 1498 1498 1497 1497 1497 1497 1496 1496 1496 1496 1495 1495 1494 1494 1494 1494 1494 1494 1494 1494 1494 1495 1495 1495 1496 1496 1496 1496 1496 1496 1497 1497 1498 1498 1498 1499 1499 1500 1500 1500 1501 1501 1501 1501 1501 1501 1501 1502 1502 1502 1502 1502 1502 1502 1503 1503 1503 1503 1504 1504 1504 1504 1504 1505 1505 1505 1505 1505 1505 1505 1505 1505 1505 1505 1505 1505 1505 1505 1505
1497 1497 1497 1497 1497 1497 1497 1497 1497 1496 1496 1496 1496 1495 1495 1495 1494 1494 1494 1494 1494 1493 1493 1493 1493 1493 1493 1494 1494 1494 1494 1494 1495 1495 1495 1495 1495 1496 1496 1497 1497 1497 1498 1498 1499 1499 1499 1500 1500 1500 1500 1500 1500 1500 1500 1500 1500 1501 1501 1501 1501 1501 1502 1502 1502 1502 1503 1503 1503 1504 1504 1504 1504 1504 1504 1504 1504 1504 1504 1503 1503 1503 1503 1503 1504 1504
1496 1496 1496 1496 1496 1496 1496 1496 1496 1495 1495 1495 1495 1494 1494 1494 1494 1493 1493 1493 1493 1493 1492 1492 1492 1492 1492 1492 1493 1493 1493 1494 1494 1494 1494 1494 1494 1495 1495 1496 1496 1496 1497 1497 1498 1498 1499 1499 1499 1499 1499 1499 1499 1499 1499 1499 1499 1499 1500 1500 1500 1500 1501 1501 1501 1501 1502 1502 1502 1502 1502 1502 1502 1502 1502 1502 1502 1502 1502 1502 1502 1502 1502 1502 1502 1503
1495 1495 1495 1495 1495 1495 1495 1494 1494 1494 1494 1494 1494 1493 1493 1493 1493 1492 1492 1492 1492 1492 1491 1491 1491 1491 1491 1491 1492 1492 1492 1492 1493 1493 1493 1493 1494 1494 1494 1495 1495 1495 1495 1496 1496 1497 1497 1498 1498 1498 1498 1498 1498 1498 1498 1498 1498 1498 1499 1499 1499 1499 1499 1500 1500 1500 1500 1501 1501 1501 1501 1501 1501 1501 1500 1500 1500 1500 1500 1500 1500 1500 1500 1501 1501 1501
1494 1494 1494 1494 1494 1494 1494 1494 1494 1493 1493 1493 1493 1492 1492 1492 1492 1492 1491 1491 1491 1491 1491 1490 1490 1490 1490 1490 1491 1491 1491 1491 1491 1492 1492 1492 1493 1493 1494 1494 1494 1494 1494 1495 1495 1496 1496 1496 1497 1497 1497 1497 1497 1497 1497 1497 1497 1497 1497 1498 1498 1498 1499 1499 1499 1499 1499 1499 1499 1500 1500 1500 1499 1499 1499 1499 1499 1499 1499 1499 1499 1499 1499 1499 1499 1500
1493 1493 1493 1493 1493 1493 1493 1493 1492 1492 1492 1492 1492 1491 1491 1491 1491 1491 1490 1490 1490 1490 1490 1489 1489 1489 1490 1490 1490 1490 1490 1490 1490 1491 1491 1491 1492 1492 1493 1493 1493 1493 1493 1494 1494 1495 1495 1495 1495 1496 1496 1496 1496 1496 1496 1496 1496 1496 1496 1496 1497 1497 1497 1498 1498 1498 1498 1498 1498 1499 1499 1498 1498 1498 1498 1498 1498 1497 1497 1497 1498 1498 1498 1498 1498 1498
1491 1491 1492 1492 1492 1492 1492 1491 1491 1491 1491 1491 1491 1490 1490 1490 1490 1490 1490 1489 1489 1489 1489 1489 1489 1489 1489 1489 1489 1489 1490 1490 1490 1490 1490 1490 1490 1491 1492 1492 1492 1492 1492 1492 1493 1494 1494 1494 1494 1494 1494 1495 1495 1495 1495 1495 1495 1495 1495 1495 1495 1496 1496 1496 1496 1497 1497 1497 1497 1497 1497 1497 1497 1497 1497 1496 1496 1496 1496 1496 1496 1496 1497 1497 1497 1497
1490 1490 1490 1490 1490 1490 1490 1490 1490 1490 1490 1490 1490 1489 1489 1489 1489 1489 1489 1489 1489 1489 1489 1489 1489 1489 1489 1489 1489 1489 1489 1489 1489 1489 1489 1489 1489 1490 1490 1491 1491 1491 1491 1491 1492 1492 1493 1493 1493 1493 1494 1494 1494 1494 1494 1494 1494 1494 1494 1494 1494 1494 1494 1495 1495 1495 1496 1496 1496 1496 1496 1496 1496 1495 1495 1495 1495 1495 1495 1495 1495 1495 1495 1495 1495 1496
1489 1489 1489 1489 1489 1489 1489 1489 1489 1489 1489 1489 1489 1489 1489 1489 1489 1488 1488 1488 1488 1488 1488 1488 1488 1488 1488 1488 1488 1488 1488 1489 1489 1489 1488 1488 1488 1489 1489 1489 1489 1490 1490 1490 1490 1491 1491 1491 1492 1492 1492 1492 1492 1492 1492 1492 1493 1493 1493 1493 1493 1493 1493 1494 1494 1494 1494 1494 1494 1494 1494 1494 1494 1494 1494 1494 1494 1494 1494 1494 1494 1494 1494 1494 1494 1494
1489 1488 1488 1488 1488 1488 1488 1488 1488 1488 1488 1488 1488 1488 1488 1488 1488 1488 1487 1487 1487 1487 1487 1487 1487 1487 1487 1487 1487 1487 1487 1487 1488 1488 1487 1487 1487 1487 1488 1488 1488 1489 1489 1489 1489 1489 1489 1490 1490 1490 1491 1491 1491 1491 1491 1491 1491 1491 1491 1492 1492 1492 1492 1492 1493 1493 1493 1493 1493 1493 1493 1493 1493 1493 1493 1493 1492 1492 1492 1492 1492 1492 1493 1493 1493 1493
1488 1488 1488 1488 1488 1488 1487 1487 1487 1487 1487 1487 1487 1487 1487 1487 1487 1487 1486 1486 1486 1486 1486 1486 1486 1486 1486 1486 1486 1486 1486 1486 1486 1487 1487 1486 1486 1486 1486 1487 1487 1487 1487 1487 1488 1488 1488 1489 1489 1489 1489 1489 1489 1489 1489 1490 1490 1490 1490 1490 1490 1491 1491 1491 1491 1491 1492 1492 1492 1492 1492 1492 1492 1491 1491 1491 1491 1491 1491 1491 1491 1491 1491 1491 1492 1492
1487 1487 1487 1487 1487 1486 1486 1486 1486 1486 1486 1486 1486 1486 1486 1486 1486 1486 1485 1485 1486 1486 1486 1485 1485 1485 1485 1485 1485 1485 1485 1485 1485 1485 1486 1485 1485 1484 1484 1485 1486 1486 1486 1486 1486 1487 1487 1487 1487 1488 1488 1488 1488 1488 1488 1488 1489 1489 1489 1489 1489 1489 1489 1490 1490 1490 1490 1490 1490 1490 1490 1490 1490 1490 1490 1490 1490 1489 1489 1489 1489 1490 1490 1490 1490 1491
1485 1485 1485 1485 1485 1485 1485 1485 1485 1485 1485 1485 1485 1485 1485 1485 1485 1485 1485 1485 1485 1485 1485 1485 1484 1484 1484 1484 1485 1485 1485 1484 1484 1484 1484 1484 1484 1483 1483 1484 1484 1485 1485 1485 1485 1485 1485 1485 1485 1486 1486 1486 1487 1487 1487 1487 1487 1487 1487 1488 1488 1488 1488 1488 1488 1489 1489 1489 1489 1489 1489 1489 1489 1489 1489 1489 1489 1488 1488 1488 1488 1488 1489 1489 1489 1490
1484 1484 1484 1484 1484 1484 1484 1484 1484 1484 1484 1484 1484 1484 1484 1484 1484 1484 1484 1484 1484 1484 1484 1484 1484 1484 1483 1483 1484 1484 1484 1484 1483 1483 1483 1483 1482 1482 1482 1483 1483 1484 1484 1483 1483 1483 1483 1484 1484 1484 1484 1484 1485 1485 1485 1485 1486 1486 1486 1486 1486 1486 1487 1487 1487 1487 1487 1487 1487 1487 1487 1487 1487 1487 1487 1487 1487 1487 1487 1487 1487 1487 1487 1488 1488 1489
1484 1484 1483 1483 1483 1483 1483 1483 1483 1483 1483 1483 1483 1483 1483 1483 1483 1483 1483 1483 1483 1483 1483 1483 1483 1483 1483 1482 1482 1482 1482 1482 1482 1482 1482 1482 1481 1481 1481 1481 1482 1482 1482 1482 1481 1481 1480 1481 1482 1482 1483 1483 1483 1484 1484 1484 1484 1484 1484 1484 1485 1485 1485 1485 1485 1485 1485 1485 1485 1485 1485 1485 1486 1486 1486 1486 1486 1486 1486 1486 1486 1486 1486 1487 1487 1488
1483 1482 1482 1482 1482 1482 1482 1482 1482 1482 1482 1482 1482 1482 1482 1482 1482 1482 1482 1482 1482 1482 1482 1482 1481 1481 1481 1481 1481 1481 1480 1481 1481 1481 1481 1481 1480 1480 1480 1480 1480 1480 1481 1481 1480 1479 1479 1479 1479 1480 1481 1481 1482 1482 1482 1483 1483 1483 1483 1483 1483 1483 1484 1484 1484 1484 1484 1484 1484 1484 1484 1484 1484 1484 1484 1484 1484 1484 1484 1484 1484 1485 1485 1485 1486 1487
1482 1482 1481 1481 1481 1481 1481 1481 1481 1481 1481 1481 1481 1481 1481 1481 1481 1481 1481 1481 1481 1481 1481 1480 1480 1480 1480 1480 1480 1480 1479 1479 1479 1480 1480 1480 1479 1479 1479 1479 1479 1479 1479 1479 1479 1479 1478 1477 1477 1478 1479 1480 1480 1480 1481 1481 1481 1481 1481 1482 1482 1482 1482 1482 1482 1482 1482 1482 1482 1482 1482 1482 1483 1483 1483 1483 1483 1483 1483 1483 1484 1484 1484 1484 1485 1486
1481 1480 1480 1480 1480 1480 1480 1480 1480 1480 1480 1480 1480 1480 1480 1480 1480 1480 1480 1479 1479 1479 1479 1479 1479 1479 1479 1479 1479 1479 1478 1478 1478 1478 1479 1479 1478 1478 1478 1478 1478 1478 1478 1478 1477 1477 1477 1476 1476 1476 1477 1478 1478 1479 1479 1479 1480 1480 1480 1480 1480 1480 1480 1480 1480 1480 1480 1480 1480 1480 1480 1481 1481 1481 1481 1481 1482 1482 1482 1482 1482 1483 1483 1483 1484 1485
1480 1479 1479 1479 1479 1479 1479 1479 1479 1479 1479 1479 1479 1479 1479 1479 1479 1479 1479 1479 1479 1479 1479 1478 1478 1478 1478 1478 1477 1477 1477 1477 1477 1477 1477 1477 1477 1476 1476 1476 1476 1476 1476 1476 1476 1475 1475 1475 1475 1475 1475 1476 1476 1477 1477 1478 1478 1478 1478 1478 1478 1479 1479 1478 1478 1478 1479 1479 1479 1479 1479 1479 1479 1480 1480 1480 1480 1480 1481 1481 1481 1482 1482 1482 1483 1484
1479 1479 1479 1479 1479 1479 1479 1479 1479 1478 1478 1478 1478 1478 1478 1478 1478 1478 1478 1477 1477 1477 1477 1477 1477 1477 1477 1476 1476 1476 1475 1475 1475 1475 1475 1476 1475 1475 1475 1475 1475 1475 1475 1475 1474 1474 1474 1474 1474 1474 1474 1474 1474 1474 1475 1476 1476 1476 1476 1476 1476 1477 1476 1476 1477 1477 1477 1477 1477 1477 1478 1478 1478 1478 1479 1479 1479 1479 1480 1480 1480 1481 1481 1481 1482 1483
1478 1478 1478 1478 1478 1478 1478 1478 1478 1478 1478 1477 1477 1477 1477 1477 1477 1477 1477 1476 1476 1476 1476 1476 1476 1476 1476 1475 1475 1475 1474 1474 1474 1474 1474 1474 1474 1474 1474 1473 1473 1473 1474 1473 1473 1473 1473 1472 1472 1472 1472 1472 1472 1472 1473 1474 1474 1474 1474 1474 1474 1474 1474 1474 1475 1475 1475 1475 1476 1476 1476 1476 1477 1477 1477 1478 1478 1478 1479 1479 1479 1480 1480 1480 1481 1482
1476 1476 1476 1476 1476 1477 1477 1477 1477 1477 1477 1476 1476 1476 1476 1476 1476 1476 1476 1475 1475 1475 1475 1475 1475 1474 1474 1474 1474 1474 1474 1473 1473 1473 1473 1473 1473 1472 1472 1472 1472 1472 1472 1472 1471 1471 1471 1471 1471 1471 1471 1471 1471 1471 1471 1471 1472 1473 1473 1473 1473 1473 1473 1473 1473 1473 1474 1474 1474 1475 1475 1475 1475 1475 1476 1476 1477 1477 1477 1478 1478 1479 1479 1480 1480 1480
1475 1475 1475 1475 1475 1475 1475 1475 1475 1476 1476 1475 1475 1475 1475 1475 1475 1475 1475 1474 1474 1474 1474 1474 1474 1474 1473 1473 1473 1473 1472 1472 1472 1472 1471 1471 1471 1471 1471 1470 1470 1470 1470 1470 1470 1470 1469 1469 1469 1469 1469 1469 1469 1469 1469 1469 1470 1470 1471 1471 1471 1471 1471 1471 1471 1472 1472 1473 1473 1473 1474 1474 1474 1474 1475 1475 1475 1476 1476 1477 1477 1478 1479 1479 1479 1480
1474 1474 1474 1474 1474 1474 1474 1474 1474 1474 1474 1474 1474 1474 1474 1474 1474 1474 1474 1474 1473 1473 1473 1473 1473 1472 1472 1472 1472 1471 1471 1471 1471 1470 1470 1470 1470 1469 1469 1469 1469 1469 1469 1469 1469 1468 1468 1468 1468 1467 1467 1467 1468 1468 1468 1468 1468 1468 1469 1469 1469 1470 1470 1470 1470 1470 1471 1471 1472 1472 1472 1473 1473 1473 1474 1474 1474 1475 1475 1476 1476 1477 1477 1478 1478 1479
1473 1473 1473 1473 1473 1473 1473 1473 1473 1473 1473 1473 1473 1473 1473 1473 1473 1473 1473 1473 1472 1472 1472 1472 1472 1471 1471 1471 1471 1470 1470 1470 1469 1469 1469 1469 1469 1468 1468 1468 1468 1467 1467 1467 1467 1467 1467 1467 1466 1466 1466 1466 1466 1466 1466 1466 1466 1467 1467 1468 1468 1469 1469 1469 1469 1469 1469 1470 1470 1470 1471 1471 1472 1472 1472 1473 1473 1474 1474 1475 1475 1476 1476 1477 1477 1477
1472 1472 1472 1472 1472 1472 1472 1472 1472 1472 1472 1472 1472 1472 1472 1472 1472 1472 1472 1472 1471 1471 1471 1471 1470 1470 1470 1470 1469 1469 1469 1469 1468 1468 1468 1468 1467 1467 1467 1467 1466 1466 1466 1466 1466 1466 1465 1465 1465 1465 1465 1465 1465 1465 1465 1465 1465 1465 1466 1466 1467 1467 1468 1468 1468 1468 1468 1469 1469 1469 1470 1470 1470 1471 1471 1472 1472 1473 1474 1474 1474 1475 1475 1475 1476 1476
1470 1470 1470 1470 1470 1471 1471 1471 1471 1471 1471 1471 1471 1471 1471 1471 1471 1471 1471 1470 1470 1470 1470 1470 1469 1469 1469 1469 1469 1469 1468 1468 1467 1467 1467 1466 1466 1466 1466 1465 1465 1465 1465 1465 1464 1464 1464 1464 1464 1464 1464 1464 1464 1464 1464 1464 1464 1464 1464 1465 1465 1465 1466 1467 1467 1467 1467 1468 1468 1468 1469 1469 1469 1470 1470 1471 1471 1472 1472 1473 1473 1474 1474 1474 1475 1475
1469 1469 1469 1469 1469 1469 1469 1469 1469 1469 1469 1469 1469 1469 1469 1469 1469 1469 1469 1469 1469 1469 1469 1469 1469 1469 1469 1468 1468 1468 1467 1467 1467 1466 1466 1465 1465 1465 1464 1464 1464 1464 1464 1464 1463 1463 1463 1463 1463 1463 1463 1463 1463 1462 1462 1463 1463 1464 1464 1464 1464 1464 1464 1465 1466 1466 1466 1467 1467 1467 1468 1468 1468 1469 1469 1470 1470 1471 1471 1472 1472 1472 1473 1473 1474 1474
1468 1468 1468 1468 1468 1468 1468 1468 1468 1468 1468 1469 1469 1469 1468 1468 1468 1468 1468 1468 1468 1467 1467 1467 1467 1467 1467 1467 1467 1467 1467 1466 1466 1466 1465 1464 1464 1464 1464 1463 1463 1463 1463 1463 1462 1462 1462 1462 1462 1462 1462 1462 1461 1461 1461 1462 1462 1463 1463 1463 1463 1463 1463 1464 1464 1465 1465 1466 1466 1466 1467 1467 1467 1468 1468 1469 1469 1469 1470 1470 1471 1471 1471 1472 1472 1473
1466 1466 1466 1466 1467 1467 1467 1467 1467 1467 1467 1467 1467 1467 1467 1467 1467 1467 1467 1466 1466 1466 1466 1466 1466 1466 1466 1466 1466 1465 1465 1465 1465 1465 1464 1464 1464 1463 1463 1462 1462 1462 1462 1461 1461 1461 1461 1461 1461 1461 1461 1461 1460 1460 1460 1461 1461 1462 1462 1462 1462 1462 1462 1463 1463 1464 1464 1465 1465 1465 1466 1466 1466 1466 1467 1467 1467 1468 1469 1469 1469 1470 1470 1471 1471 1472
1465 1465 1465 1465 1465 1465 1466 1466 1466 1466 1466 1466 1466 1466 1466 1466 1465 1465 1465 1465 1465 1465 1464 1464 1464 1464 1464 1464 1464 1464 1464 1464 1464 1464 1463 1463 1463 1462 1462 1461 1461 1461 1461 1460 1460 1460 1460 1460 1460 1460 1460 1460 1459 1459 1460 1460 1460 1461 1461 1461 1461 1461 1461 1461 1462 1462 1463 1464 1464 1464 1465 1465 1465 1465 1465 1466 1466 1467 1467 1468 1468 1469 1469 1469 1470 1470
1464 1464 1464 1464 1464 1464 1464 1464 1464 1464 1465 1465 1465 1465 1465 1464 1464 1464 1464 1464 1464 1464 1463 1463 1463 1463 1463 1463 1463 1463 1462 1462 1462 1462 1462 1462 1462 1461 1461 1460 1460 1460 1460 1459 1459 1459 1459 1459 1459 1459 1459 1459 1459 1459 1459 1459 1460 1460 1460 1460 1460 1460 1460 1460 1461 1461 1462 1462 1463 1463 1464 1464 1464 1464 1464 1464 1465 1465 1466 1466 1467 1467 1468 1468 1469 1469
1463 1463 1463 1463 1463 1463 1463 1463 1463 1463 1463 1463 1463 1463 1463 1463 1463 1463 1463 1463 1463 1462 1462 1462 1462 1462 1461 1461 1461 1461 1461 1461 1460 1460 1460 1460 1460 1460 1460 1459 1459 1459 1459 1459 1458 1458 1458 1458 1458 1458 1458 1458 1458 1458 1458 1459 1459 1459 1459 1459 1459 1459 1459 1459 1460 1460 1460 1461 1461 1462 1462 1462 1462 1463 1463 1463 1463 1464 1464 1465 1465 1466 1467 1467 1467 1468
1461 1461 1462 1462 1462 1462 1461 1461 1461 1462 1462 1462 1462 1462 1462 1462 1462 1462 1461 1461 1461 1461 1461 1461 1460 1460 1460 1460 1460 1460 1460 1459 1459 1459 1459 1459 1459 1459 1459 1459 1458 1458 1458 1457 1457 1457 1457 1457 1457 1457 1457 1457 1457 1457 1457 1458 1458 1458 1458 1458 1458 1458 1458 1458 1459 1459 1459 1459 1459 1460 1460 1461 1461 1461 1461 1461 1461 1462 1462 1463 1464 1464 1465 1466 1466 1466
1460 1460 1460 1460 1460 1460 1460 1460 1460 1460 1460 1460 1460 1460 1460 1460 1460 1460 1460 1460 1460 1460 1460 1460 1459 1459 1459 1459 1459 1459 1459 1458 1458 1458 1458 1458 1458 1458 1458 1458 1457 1457 1457 1456 1456 1456 1456 1456 1456 1456 1456 1456 1456 1456 1456 1456 1456 1456 1456 1456 1456 1456 1457 1457 1457 1458 1458 1458 1458 1458 1459 1459 1459 1459 1460 1460 1460 1460 1460 1461 1462 1463 1464 1464 1465 1465
1458 1459 1459 1459 1459 1459 1459 1459 1459 1459 1459 1459 1459 1459 1459 1459 1459 1459 1459 1459 1459 1459 1459 1459 1459 1458 1458 1458 1458 1458 1457 1457 1457 1457 1456 1456 1456 1456 1456 1456 1456 1456 1456 1455 1455 1455 1454 1454 1454 1455 1456 1456 1456 1455 1455 1455 1455 1455 1455 1455 1455 1455 1455 1455 1456 1456 1456 1456 1456 1457 1457 1457 1458 1458 1458 1459 1458 1458 1459 1459 1460 1461 1462 1463 1463 1464